Weather reports worldwide

Advertisment
Hoyerswerda, Germany (10495): temperature & dewpoint: 20.09.2018 17:00:00 - 26.09.2018 17:00:00 (CEST)Hoyerswerda, Germany (10495): temperature 5cm & temperature -5cm: 20.09.2018 17:00:00 - 26.09.2018 17:00:00 (CEST)Hoyerswerda, Germany (10495): temperature -20cm & temperature -100cm: 20.09.2018 17:00:00 - 26.09.2018 17:00:00 (CEST)Hoyerswerda, Germany (10495): wind speed & gusts: 20.09.2018 17:00:00 - 26.09.2018 17:00:00 (CEST)Hoyerswerda, Germany (10495): wind direction: 20.09.2018 17:00:00 - 26.09.2018 17:00:00 (CEST)Hoyerswerda, Germany (10495): reduced air pressure: 20.09.2018 17:00:00 - 26.09.2018 17:00:00 (CEST)Hoyerswerda, Germany (10495): visibility: 20.09.2018 17:00:00 - 26.09.2018 17:00:00 (CEST)Hoyerswerda, Germany (10495): sunshine duration: 20.09.2018 17:00:00 - 26.09.2018 17:00:00 (CEST)Hoyerswerda, Germany (10495): precipitation: 20.09.2018 17:00:00 - 26.09.2018 17:00:00 (CEST)
Date & Time tt [°C] td [°C] tt 5cm [°C] tt -5cm [°C] tt -20cm [°C] tt -100cm [°C] ff [km/h] ff [kn] fx [km/h] fx [kn] dd ppp [hPa] vv [km] sd [min] rr [mm]
26.09.2018 17:00:00 16,3 0,4 16,6 14,3 12,9 16,6 16 9 26 14 W 1030,6 70 6 0,0
26.09.2018 16:00:00 16,6 -1,2 16,9 15,7 12,6 16,6 14 8 32 17 SW 1031,0 70 44 0,0
26.09.2018 15:00:00 17,0 -0,8 19,8 15,8 12,1 16,6 19 10 34 18 WSW 1032,4 36 48 0,0
26.09.2018 14:00:00 15,9 -1,0 17,6 16,5 11,3 16,6 17 9 29 16 SW 1033,4 57 55 0,0
26.09.2018 13:00:00 15,5 -0,5 17,6 15,7 10,5 16,7 21 12 30 16 SW 1034,5 42 60 0,0
26.09.2018 12:00:00 14,1 0,4 17,0 13,3 9,8 16,7 16 9 27 15 SSW 1035,1 58 60 0,0
26.09.2018 11:00:00 11,6 0,6 12,0 10,2 9,3 16,7 16 9 29 16 SSW 1036,0 59 3 0,0
26.09.2018 10:00:00 10,0 3,0 10,5 8,3 8,9 16,8 8 4 16 9 S 1036,6 70 19 0,0
26.09.2018 09:00:00 7,1 2,0 7,9 5,5 8,8 16,8 9 5 16 8 S 1036,5 42 60 0,0
26.09.2018 08:00:00 4,4 1,4 4,1 3,2 8,9 16,8 8 4 13 7 S 1036,9 58 16 0,0
26.09.2018 07:00:00 2,7 0,9 -0,1 2,3 9,2 16,8 9 5 12 6 S 1037,4 53 0 0,0
26.09.2018 06:00:00 1,1 0,3 -2,8 2,5 9,5 16,9 4 2 12 6 SSE 1037,3 26 0 0,0
26.09.2018 05:00:00 0,7 0,0 -3,6 2,7 9,8 16,9 3 1 7 4 S 1037,9 36 0 0,0
26.09.2018 04:00:00 1,0 0,6 -3,5 3,1 10,1 16,9 4 2 7 4 SSE 1038,8 27 0 0,0
26.09.2018 03:00:00 1,4 0,7 -3,0 3,5 10,5 16,9 4 2 9 5 SSE 1038,8 32 0 0,0
26.09.2018 02:00:00 2,1 1,3 -3,1 3,9 10,9 17,0 6 3 9 5 S 1038,8 47 0 0,0
26.09.2018 01:00:00 2,2 1,4 -3,0 4,4 11,3 17,0 5 3 7 4 S 1039,2 52 0 0,0
26.09.2018 00:00:00 2,3 1,2 -2,4 5,1 11,7 17,0 3 2 8 4 S 1039,4 47 0 0,0
25.09.2018 23:00:00 3,2 1,6 -1,7 5,7 12,1 17,1 5 3 8 4 S 1039,4 56 0 0,0
25.09.2018 22:00:00 4,0 2,3 -1,6 6,5 12,5 17,1 5 3 7 4 S 1039,2 70 0 0,0
25.09.2018 21:00:00 4,4 1,6 -0,6 7,6 12,9 17,1 0 0 4 2 N 1039,1 58 0 0,0
25.09.2018 20:00:00 6,7 1,3 0,8 9,0 13,3 17,2 3 2 7 4 SW 1038,5 70 0 0,0
25.09.2018 19:00:00 10,6 1,2 5,2 10,5 13,5 17,2 5 3 16 9 WNW 1037,7 70 50 0,0
25.09.2018 18:00:00 12,8 0,3 12,9 11,6 13,6 17,2 11 6 24 13 WNW 1037,2 70 43 0,0
25.09.2018 17:00:00 12,0 1,1 10,9 12,6 13,6 17,3 13 7 28 15 WNW 1037,3 70 17 0,0
25.09.2018 16:00:00 14,3 0,8 17,7 14,7 13,4 17,3 17 9 32 17 WNW 1037,3 34 45 0,0
25.09.2018 15:00:00 13,5 2,0 17,2 16,1 12,9 17,4 23 12 35 19 WNW 1037,3 19 59 0,0
25.09.2018 14:00:00 13,1 3,2 16,2 15,7 12,3 17,4 19 10 31 17 WNW 1037,3 65 47 0,0
25.09.2018 13:00:00 12,8 2,3 17,9 15,6 11,6 17,4 19 10 27 15 W 1037,2 31 60 0,0
25.09.2018 12:00:00 11,6 3,2 16,7 13,9 10,9 17,5 16 9 31 17 NW 1037,1 63 57 0,0
25.09.2018 11:00:00 10,5 4,5 14,2 11,2 10,5 17,5 16 9 28 15 WNW 1036,8 40 58 0,0
25.09.2018 10:00:00 8,5 4,2 10,8 8,9 10,2 17,5 16 9 27 15 WNW 1036,5 29 60 0,0
25.09.2018 09:00:00 6,6 3,7 8,6 6,6 10,2 17,6 13 7 18 10 W 1035,9 48 39 0,0
25.09.2018 08:00:00 4,3 3,0 3,2 4,8 10,4 17,6 9 5 14 8 W 1035,4 42 22 0,0
25.09.2018 07:00:00 3,9 2,9 1,7 4,6 10,6 17,6 8 4 14 8 W 1034,7 48 0 0,0
25.09.2018 06:00:00 4,2 2,9 1,9 5,0 10,9 17,6 10 5 16 9 W 1033,8 70 0 0,0
25.09.2018 05:00:00 4,7 3,1 3,0 5,5 11,1 17,7 13 7 22 12 W 1033,2 70 0 0,0
25.09.2018 04:00:00 5,4 3,5 3,8 5,8 11,4 17,7 16 9 24 13 W 1032,7 70 0 0,0
25.09.2018 03:00:00 5,7 3,5 4,1 6,2 11,6 17,7 16 8 27 15 W 1032,4 70 0 0,0
25.09.2018 02:00:00 6,2 3,7 4,6 6,6 11,9 17,8 17 9 29 15 W 1031,8 70 0 0,0
25.09.2018 01:00:00 7,0 3,8 5,5 6,9 12,1 17,8 20 11 29 16 W 1031,2 70 0 0,0
25.09.2018 00:00:00 7,4 4,1 5,8 7,3 12,4 17,8 20 11 29 16 W 1030,6 70 0 0,0
24.09.2018 23:00:00 7,9 4,7 6,4 7,9 12,6 17,9 21 11 33 18 W 1029,9 70 0 0,0
24.09.2018 22:00:00 8,3 4,6 6,6 8,0 12,9 17,9 19 10 35 19 W 1029,1 70 0 0,0
24.09.2018 21:00:00 8,8 4,4 7,2 8,4 13,2 17,9 23 13 34 18 W 1028,2 70 0 0,0
24.09.2018 20:00:00 9,9 3,6 8,3 9,0 13,5 18,0 26 14 42 23 W 1027,3 70 0 0,0
24.09.2018 19:00:00 10,6 2,9 8,9 10,4 13,7 18,0 33 18 52 28 W 1026,5 70 36 0,0
24.09.2018 18:00:00 9,4 6,0 8,6 11,5 13,8 18,0 7 4 17 9 WNW 1026,2 70 23 0,0
24.09.2018 17:00:00 8,1 5,7 7,6 11,9 13,8 18,1 14 8 62 34 N 1026,5 53 14 0,5
24.09.2018 16:00:00 12,6 3,0 12,9 13,9 13,7 18,1 33 18 59 32 W 1025,4 44 48 0,0
24.09.2018 15:00:00 14,1 2,5 17,0 13,5 13,4 18,1 37 20 59 32 WNW 1025,0 29 44 0,0
24.09.2018 14:00:00 12,2 3,7 12,9 13,4 13,2 18,2 41 22 67 36 WNW 1024,9 30 46 0,0
24.09.2018 13:00:00 12,8 4,4 15,4 12,5 13,0 18,2 37 20 61 33 WNW 1024,5 47 34 0,0
24.09.2018 12:00:00 11,9 4,6 13,4 11,5 12,8 18,2 39 21 64 34 WNW 1024,4 36 16 0,0
24.09.2018 11:00:00 11,2 5,0 11,9 11,4 12,7 18,3 36 19 55 30 WNW 1023,6 39 32 0,0
24.09.2018 10:00:00 10,6 5,9 12,0 10,3 12,6 18,3 32 18 53 28 W 1022,7 50 36 0,0
24.09.2018 09:00:00 9,1 5,5 9,2 9,4 12,7 18,3 34 18 50 27 W 1021,8 53 31 0,0
24.09.2018 08:00:00 8,4 6,0 8,2 8,6 12,9 18,3 25 14 46 25 W 1021,0 51 12 0,0
24.09.2018 07:00:00 8,3 5,8 7,7 9,0 13,0 18,4 27 15 41 22 W 1020,2 53 0 0,0
24.09.2018 06:00:00 8,6 6,0 8,3 9,3 13,2 18,4 25 13 45 24 W 1019,7 57 0 0,0
24.09.2018 05:00:00 8,7 6,7 8,4 9,4 13,3 18,4 24 13 39 21 W 1018,6 48 0 0,0
24.09.2018 04:00:00 8,7 6,9 8,2 9,4 13,5 18,4 27 15 41 22 W 1017,3 37 0 0,0
24.09.2018 03:00:00 8,5 7,0 7,9 9,5 13,8 18,5 26 14 38 20 W 1016,2 43 0 0,0
24.09.2018 02:00:00 8,3 7,0 7,7 9,6 14,0 18,5 20 11 34 19 W 1014,8 54 0 0,2
24.09.2018 01:00:00 8,2 6,9 7,7 9,7 14,4 18,5 22 12 46 25 WNW 1013,5 21 0 0,2
24.09.2018 00:00:00 8,3 6,8 7,7 10,0 14,7 18,5 26 14 54 29 NW 1011,6 17 0 0,5
23.09.2018 23:00:00 9,0 7,7 8,4 10,6 15,0 18,6 31 17 50 27 NNW 1008,9 55 0 1,5
23.09.2018 22:00:00 8,9 7,9 8,7 11,6 15,3 18,6 30 16 52 28 N 1005,3 4,0 0 1,1
23.09.2018 21:00:00 10,6 10,1 10,4 12,0 15,6 18,6 19 10 32 17 N 1002,9 4,5 0 2,0
23.09.2018 20:00:00 10,7 10,0 10,4 12,2 15,9 18,6 13 7 43 23 NE 1000,3 13 0 5,1
23.09.2018 19:00:00 10,7 10,2 10,5 12,6 16,3 18,7 18 10 32 17 ENE 1002,0 6 0 8,6
23.09.2018 18:00:00 11,2 10,5 11,0 13,3 16,5 18,7 18 10 32 17 ENE 1003,2 3,6 0 5,0
23.09.2018 17:00:00 11,4 11,0 11,3 14,4 16,7 18,7 14 7 25 13 NE 1005,8 1,7 0 4,1
23.09.2018 16:00:00 11,9 10,7 11,6 15,8 16,7 18,7 12 6 23 13 ESE 1006,9 4,6 0 0,0
23.09.2018 15:00:00 13,2 9,0 13,2 16,6 16,6 18,8 13 7 25 13 SSE 1009,8 28 0 0,0
23.09.2018 14:00:00 14,2 8,2 15,1 17,3 16,4 18,8 11 6 19 10 SE 1011,4 70 0 0,0
23.09.2018 13:00:00 13,3 8,5 14,0 16,5 16,2 18,8 5 3 17 9 SSW 1013,7 70 0 0,1
23.09.2018 12:00:00 13,8 7,8 14,5 16,2 16,0 18,8 9 5 20 11 SW 1014,2 70 0 0,0
23.09.2018 11:00:00 14,0 7,3 15,1 15,8 15,8 18,8 12 7 19 10 SW 1014,8 70 0 0,0
23.09.2018 10:00:00 13,4 7,6 14,2 14,8 15,6 18,9 14 7 20 11 WSW 1015,4 70 2 0,0
23.09.2018 09:00:00 12,6 8,0 13,0 13,5 15,6 18,9 9 5 16 9 SW 1015,4 70 0 0,0
23.09.2018 08:00:00 11,8 7,7 11,6 12,5 15,7 18,9 8 4 15 8 WSW 1016,0 70 0 0,0
23.09.2018 07:00:00 11,6 7,3 11,1 12,4 15,8 18,9 11 6 20 11 WSW 1016,1 70 0 0,0
23.09.2018 06:00:00 11,6 7,1 11,1 12,4 16,0 18,9 12 6 22 12 WSW 1016,4 70 0 0,0
23.09.2018 05:00:00 11,7 7,4 11,1 12,4 16,1 19,0 14 7 25 13 WSW 1016,7 70 0 0,0
23.09.2018 04:00:00 11,7 7,7 10,8 12,7 16,3 19,0 13 7 20 11 WSW 1017,2 70 0 0,0
23.09.2018 03:00:00 12,3 7,5 11,4 12,9 16,4 19,0 10 5 23 12 SW 1017,4 70 0 0,0
23.09.2018 02:00:00 13,0 6,4 11,9 13,2 16,6 19,0 10 5 17 9 WSW 1017,6 70 0 0,0
23.09.2018 01:00:00 13,6 5,5 12,7 13,3 16,7 19,0 13 7 24 13 WSW 1017,5 70 0 0,0
23.09.2018 00:00:00 13,9 5,1 13,0 13,3 16,9 19,0 16 9 25 14 WSW 1017,5 70 0 0,0
22.09.2018 23:00:00 12,1 6,1 11,4 13,4 17,2 19,1 7 4 14 7 SSW 1017,7 66 0 0,0
22.09.2018 22:00:00 12,1 5,9 11,2 13,5 17,5 19,1 9 5 12 7 S 1017,8 56 0 0,0
22.09.2018 21:00:00 12,7 5,6 10,9 14,1 17,7 19,1 8 4 11 6 S 1018,0 70 0 0,0
22.09.2018 20:00:00 12,6 5,4 7,7 15,0 18,0 19,1 6 3 13 7 SSW 1018,1 54 0 0,0
22.09.2018 19:00:00 14,6 4,9 12,8 16,2 18,1 19,1 9 5 26 14 WSW 1018,2 70 0 0,0
22.09.2018 18:00:00 15,8 4,1 15,3 17,3 18,1 19,1 16 9 37 20 WSW 1018,3 70 0 0,0
22.09.2018 17:00:00 16,2 3,7 16,2 18,4 18,0 19,2 24 13 37 20 W 1018,7 70 0 0,0
22.09.2018 16:00:00 16,7 4,4 17,5 19,2 17,8 19,2 23 13 36 19 W 1018,6 53 13 0,0
22.09.2018 15:00:00 16,5 4,7 18,0 18,9 17,5 19,2 23 13 44 24 WSW 1018,8 48 13 0,0
22.09.2018 14:00:00 16,2 5,2 17,4 18,3 17,2 19,2 25 13 41 22 WSW 1019,2 44 13 0,0
22.09.2018 13:00:00 16,3 5,9 19,2 17,1 17,0 19,2 26 14 47 25 W 1019,3 61 18 0,0
22.09.2018 12:00:00 14,6 5,8 14,9 15,7 16,8 19,2 24 13 41 22 W 1019,7 56 17 0,0
22.09.2018 11:00:00 15,3 6,3 18,0 15,5 16,6 19,2 29 15 49 26 W 1019,5 32 55 0,0
22.09.2018 10:00:00 14,5 6,5 16,0 13,3 16,6 19,2 26 14 49 26 W 1019,3 29 30 0,0
22.09.2018 09:00:00 13,0 6,0 13,5 12,2 16,8 19,2 25 14 40 21 WSW 1019,0 70 46 0,0
22.09.2018 08:00:00 12,0 5,7 11,6 10,8 17,1 19,2 21 11 34 18 WSW 1018,3 49 30 0,0
22.09.2018 07:00:00 11,4 5,8 10,0 10,6 17,6 19,2 17 9 30 16 WSW 1017,9 70 0 0,0
22.09.2018 06:00:00 11,3 5,8 9,5 11,0 18,0 19,2 15 8 30 16 SW 1017,5 70 0 0,0
22.09.2018 05:00:00 11,9 5,8 10,3 11,6 18,5 19,1 17 9 35 19 SW 1017,1 70 0 0,0
22.09.2018 04:00:00 11,8 7,0 10,3 12,3 19,0 19,1 15 8 25 14 SW 1016,7 70 0 0,0
22.09.2018 03:00:00 12,0 8,7 10,6 13,2 19,5 19,1 17 9 28 15 WSW 1016,1 49 0 0,0
22.09.2018 02:00:00 12,4 10,0 11,3 14,0 20,1 19,1 17 9 30 16 WSW 1015,5 43 0 0,0
22.09.2018 01:00:00 13,0 10,1 12,0 14,7 20,6 19,1 21 11 29 16 W 1015,2 63 0 0,0
22.09.2018 00:00:00 12,9 10,9 12,0 15,5 21,2 19,1 15 8 23 12 WSW 1014,4 45 0 0,0
21.09.2018 23:00:00 12,8 10,7 11,8 16,4 21,8 19,1 16 9 23 12 WSW 1013,5 70 0 0,0
21.09.2018 22:00:00 12,7 10,8 11,9 17,4 22,6 19,1 13 7 29 16 SW 1012,4 66 0 0,3
21.09.2018 21:00:00 14,0 10,2 13,0 18,7 23,3 19,1 16 8 34 18 W 1012,0 53 0 0,0
21.09.2018 20:00:00 14,9 11,5 13,4 21,0 24,0 19,1 24 13 55 30 W 1010,0 18 0 0,1
21.09.2018 19:00:00 17,9 13,9 16,0 25,1 24,2 19,1 47 25 68 37 WNW 1007,9 32 0 2,8
21.09.2018 18:00:00 28,3 11,3 27,4 27,8 24,2 19,1 15 8 28 15 SW 1004,0 56 0 0,0
21.09.2018 17:00:00 29,4 11,1 29,2 29,4 23,9 19,1 17 9 37 20 WSW 1004,4 38 27 0,0
21.09.2018 16:00:00 30,0 12,3 32,6 30,1 23,4 19,1 21 11 38 20 S 1004,8 19 55 0,0
21.09.2018 15:00:00 29,6 11,8 32,6 30,3 22,8 19,1 20 11 37 20 S 1005,6 29 53 0,0
21.09.2018 14:00:00 29,2 11,5 32,1 29,6 22,1 19,1 17 9 40 22 S 1006,6 42 48 0,0
21.09.2018 13:00:00 29,1 11,3 32,3 28,4 21,4 19,1 19 10 39 21 S 1007,5 26 60 0,0
21.09.2018 12:00:00 27,7 10,9 30,0 26,0 20,9 19,1 22 12 40 21 SSW 1008,5 32 59 0,0
21.09.2018 11:00:00 26,5 12,5 28,7 23,6 20,5 19,0 19 10 32 17 S 1009,5 36 60 0,0
21.09.2018 10:00:00 24,3 12,7 26,1 21,3 20,4 19,0 18 10 34 19 S 1010,4 31 60 0,0
21.09.2018 09:00:00 21,3 12,5 22,4 19,5 20,4 19,0 12 7 22 12 SSE 1010,9 42 60 0,0
21.09.2018 08:00:00 19,4 12,2 19,5 18,3 20,6 19,0 11 6 18 10 SSE 1011,3 41 39 0,0
21.09.2018 07:00:00 18,0 12,2 16,6 18,3 20,9 19,0 12 6 18 10 SSE 1011,6 43 0 0,0
21.09.2018 06:00:00 18,4 12,5 16,7 18,5 21,2 19,0 12 6 19 10 SSE 1012,0 43 0 0,0
21.09.2018 05:00:00 19,1 12,5 16,9 18,9 21,4 19,0 11 6 18 10 SSE 1012,5 45 0 0,0
21.09.2018 04:00:00 19,4 12,3 17,7 19,2 21,7 18,9 10 5 17 9 SSE 1012,8 44 0 0,0
21.09.2018 03:00:00 19,1 12,5 17,0 19,6 22,1 18,9 10 5 14 8 S 1013,3 46 0 0,0
21.09.2018 02:00:00 19,5 12,7 16,5 20,2 22,4 18,9 8 4 13 7 SSE 1013,5 43 0 0,0
21.09.2018 01:00:00 20,4 12,8 18,2 20,9 22,7 18,9 8 4 16 9 S 1013,9 43 0 0,0
21.09.2018 00:00:00 21,5 13,0 19,7 21,5 23,1 18,9 10 5 16 9 S 1014,4 48 0 0,0
20.09.2018 23:00:00 21,9 13,1 20,1 22,1 23,5 18,9 10 6 16 8 S 1014,6 43 0 0,0
20.09.2018 22:00:00 22,9 13,5 21,0 22,9 23,9 18,9 11 6 15 8 S 1014,7 48 0 0,0
20.09.2018 21:00:00 23,3 13,9 15,5 24,2 24,2 18,9 8 4 10 6 SSE 1014,9 44 0 0,0
20.09.2018 20:00:00 25,3 13,4 18,7 26,1 24,4 18,9 7 4 12 6 S 1014,7 48 0 0,0
20.09.2018 19:00:00 28,2 13,0 24,4 28,0 24,4 18,9 4 2 10 6 SW 1014,7 51 42 0,0
20.09.2018 18:00:00 29,0 12,5 28,8 29,4 24,3 18,9 6 3 16 9 SSE 1014,8 53 30 0,0
20.09.2018 17:00:00 30,1 12,3 30,8 30,6 23,9 18,9 10 5 27 14 SSW 1015,1 44 57 0,0

tt = temperature
td = dewpoint
tt 5cm = temperature 5cm
tt -5cm = temperature -5cm
tt -20cm = temperature -20cm
tt -100cm = temperature -100cm
ff = wind speed
fx = gusts
dd = wind direction
ppp = reduced air pressure
vv = visibility
sd = sunshine duration
rr = precipitation

Next stations